Regional Weather Roundup
Issued by NWS

Home | Current Version | Previous Version | Graphics & Text | Print | Product List | Glossary On
Versions: 1 2 3 4 5 6 7 8 9 10 11 12 13 14 15 16 17 18 19 20 21 22 23 24 25 26 27 28 29 30 31 32 33 34 35 36 37 38 39 40 41 42 43 44 45 46 47 48 49 50
000
ASUS43 KDTX 300701
RWRMI
MICHIGAN HOURLY REGIONAL WEATHER ROUNDUP
NATIONAL WEATHER SERVICE DETROIT/PONTIAC MI
300 AM EDT TUE AUG 30 2016

NOTE: "FAIR" INDICATES FEW OR NO CLOUDS BELOW 12,000 FEET WITH NO
SIGNIFICANT WEATHER AND/OR OBSTRUCTION TO VISIBILITY.

MIZ047>049-052>055-059>063-066>070-074>076-081>083-300800-
SOUTHEAST LOWER MICHIGAN

CITY           SKY/WX    TMP DP  RH WIND       PRES   REMARKS
ADRIAN         CLEAR     63  63 100 NE3       30.22S
ALMA           PTCLDY    64  64 100 W9        30.19S
ANN ARBOR      FOG       61  61 100 CALM      30.20F VSB 1/4
BAD AXE        PTCLDY    61  59  93 CALM      30.20S
CARO           PTCLDY    62  61  98 CALM      30.19S
DETROIT CITY   CLEAR     69  67  93 CALM      30.20S
DETROIT        PTCLDY    68  67  96 CALM      30.20S FOG
FLINT          CLEAR     63  63 100 S3        30.20S
GROSSE ILE       N/A     67  66  97 CALM      30.19S FOG
HILLSDALE      CLEAR     64  62  94 CALM      30.22R
HOWELL         CLEAR     67  65  93 CALM      30.20S

CITY           SKY/WX    TMP DP  RH WIND       PRES   REMARKS
JACKSON        CLOUDY    67  63  87 CALM      30.21S
LAMBERTVILLE   FOG       63  61  95 CALM      30.21R VSB 3/4
LANSING        PTCLDY    70  65  84 SW5       30.20S
LAPEER         FAIR      62  61  98 CALM      30.21S
MASON          CLOUDY    67  64  92 CALM      30.21S
MONROE         FOG       62  62 100 N6        30.19S VSB 3/4
MT. CLEMENS    PTCLDY    66  64  90 CALM      30.18S
PONTIAC        CLEAR     66  63  90 CALM      30.20R
PORT HURON     PTCLDY    59  59 100 CALM      30.20S
TRI CITIES     CLEAR     68  66  93 CALM      30.19S
MIDLAND        FAIR      63  63 100 CALM      30.17F
TROY           CLEAR     72  64  77 CALM      30.22S
SAGINAW HB     CLEAR     64  63  94 CALM      30.18F
$$
MIZ043>046-050>051-056>058-064>065-071>073-077>080-300800-
SOUTHWEST LOWER MICHIGAN

CITY           SKY/WX    TMP DP  RH WIND       PRES   REMARKS
BATTLE CREEK   MOCLDY    69  67  93 S7        30.21S
BENTON HARBOR  PTCLDY    74  70  87 SE3       30.18S
BIG RAPIDS     CLOUDY    65  65  97 CALM      30.18F
COLDWATER      CLEAR     67  65  94 CALM      30.21S
FREMONT        FAIR      66  65  98 CALM      30.18F FOG
HOLLAND        CLOUDY    72  68  87 CALM      30.18F
GRAND RAPIDS   CLOUDY    70  67  90 CALM      30.19S
IONIA          FAIR      70  66  87 CALM      30.19S
KALAMAZOO      PTCLDY    72  67  84 S6        30.20S
LUDINGTON      FOG       63  63 100 CALM      30.16F VSB 1/4
MARSHALL       CLOUDY    70  64  83 CALM      30.21S
MOUNT PLEASANT CLOUDY    65  65  97 CALM      30.18F FOG
MUSKEGON       CLOUDY    71  68  90 CALM      30.18F
SOUTH HAVEN    CLOUDY    73  72  97 CALM      30.18F
$$
MIZ016>042-300800-
NORTHERN LOWER MICHIGAN

CITY           SKY/WX    TMP DP  RH WIND       PRES   REMARKS
ALPENA         PTCLDY    65  60  84 S5        30.15F
BEAVER ISLAND  CLOUDY    71  67  88 SW9       30.11F
BELLAIRE       PTCLDY    69  66  90 CALM      30.15S
CADILLAC       PTCLDY    59  57  94 SW5       30.19F FOG
CHARLEVOIX     CLOUDY    71  64  79 SW7       30.16F
FRANKFORT      CLEAR     67  64  90 CALM      30.15F
GAYLORD        CLEAR     66  62  87 S5        30.18S
GRAYLING       CLEAR     64  63  98 CALM      30.19F
HARBOR SPRINGS MOCLDY    69  66  91 CALM      30.13F
HOUGHTON LAKE  CLEAR     68  65  90 SW6       30.20F
MANISTEE       CLOUDY    62  62 100 E3        30.16F FOG
OSCODA         PTCLDY    65  64  97 SW5       30.17S
PELLSTON       MOCLDY    72  63  73 SW3       30.12F
ROGERS CITY    MOCLDY    68  63  83 SW7       30.14F
TRAVERSE CITY  PTCLDY    70  66  87 CALM      30.14F
$$
MIZ007>008-015-300800-
EASTERN UPPER MICHIGAN

CITY           SKY/WX    TMP DP  RH WIND       PRES   REMARKS
KINROSS        PTCLDY    66  65  96 S3        30.10F
MACKINAC ISLAN MOCLDY    70  63  80 SW5       30.11S
NEWBERRY       CLOUDY    69  67  94 SW8       30.09F
S. S. MARIE    CLOUDY    65  63  93 SE5       30.09F
$$
MIZ004>006-011>014-085-300800-
CENTRAL UPPER MICHIGAN

CITY           SKY/WX    TMP DP  RH WIND       PRES   REMARKS
MANISTIQUE     CLOUDY    69  66  92 SW3       30.09F
ESCANABA       MOCLDY    71  69  93 S3        30.10F
MENOMINEE      CLOUDY   N/A N/A N/A W3        30.14R
SAWYER-GWINN   CLOUDY    68  66  93 SW5       30.12S
$$
MIZ001>003-009>011-084-300800-
WESTERN UPPER MICHIGAN

CITY           SKY/WX    TMP DP  RH WIND       PRES   REMARKS
IRON MOUNTAIN  CLOUDY    72  67  84 CALM      30.12S
HOUGHTON       CLOUDY    70  64  81 NW13      30.07F
IRONWOOD       CLOUDY    66  66 100 CALM      30.15S
$$

ABBREVIATIONS USED IN REMARKS
   TC - TEMPERATURE IN CELSIUS
  WCI - WIND CHILL INDEX
   HX - HEAT INDEX
  VSB - VISIBILITY




USA.gov is the U.S. government's official web portal to all federal, state and local government web resources and services.